| time (UTC) | temp F | wind direction | speed MPH | gust MPH | rain 1hr in | rain 24hr in | rain mn in | humidity % | barometer mb |
| 20260507150023 | 47 | 278 | 9.0 | 17.0 | 0.00 | 0.00 | 0.00 | 49 | 1013.6 |
| 20260507145513 | 48 | 288 | 6.0 | 17.0 | 0.00 | 0.00 | 0.00 | 49 | 1013.6 |
| 20260507145007 | 48 | 265 | 10.0 | 17.0 | 0.00 | 0.00 | 0.00 | 48 | 1013.6 |
| 20260507144516 | 48 | 291 | 6.0 | 19.0 | 0.00 | 0.00 | 0.00 | 50 | 1013.6 |
| 20260507144009 | 47 | 275 | 8.0 | 19.0 | 0.00 | 0.00 | 0.00 | 49 | 1013.8 |
| 20260507143503 | 47 | 274 | 8.0 | 19.0 | 0.00 | 0.00 | 0.00 | 51 | 1013.8 |
| 20260507143017 | 47 | 289 | 8.0 | 19.0 | 0.00 | 0.00 | 0.00 | 51 | 1013.7 |
| 20260507142012 | 46 | 292 | 10.0 | 18.0 | 0.00 | 0.00 | 0.00 | 51 | 1013.9 |
| 20260507141521 | 46 | 284 | 11.0 | 17.0 | 0.00 | 0.00 | 0.00 | 51 | 1014.0 |
| 20260507141006 | 46 | 263 | 9.0 | 17.0 | 0.00 | 0.00 | 0.00 | 51 | 1014.0 |
| 20260507140508 | 46 | 294 | 8.0 | 17.0 | 0.00 | 0.00 | 0.00 | 53 | 1014.0 |
| 20260507134007 | 46 | 250 | 4.0 | 12.0 | 0.00 | 0.00 | 0.00 | 57 | 1014.0 |
| 20260507133004 | 45 | 234 | 6.0 | 13.0 | 0.00 | 0.00 | 0.00 | 58 | 1013.7 |
| 20260507132503 | 45 | 248 | 5.0 | 13.0 | 0.00 | 0.00 | 0.00 | 58 | 1013.7 |
| 20260507132005 | 45 | 252 | 6.0 | 12.0 | 0.00 | 0.00 | 0.00 | 57 | 1013.7 |
| 20260507131003 | 44 | 295 | 4.0 | 11.0 | 0.00 | 0.00 | 0.00 | 60 | 1013.6 |
| 20260507124509 | 43 | 246 | 5.0 | 11.0 | 0.00 | 0.00 | 0.00 | 64 | 1013.5 |
| 20260507123503 | 43 | 246 | 4.0 | 10.0 | 0.00 | 0.00 | 0.00 | 66 | 1013.5 |
| 20260507123009 | 42 | 259 | 3.0 | 10.0 | 0.00 | 0.00 | 0.00 | 68 | 1013.5 |
| 20260507122011 | 42 | 312 | 4.0 | 9.0 | 0.00 | 0.00 | 0.00 | 69 | 1013.6 |
| 20260507121510 | 41 | 313 | 3.0 | 9.0 | 0.00 | 0.00 | 0.00 | 71 | 1013.5 |
| 20260507121004 | 41 | 275 | 1.0 | 9.0 | 0.00 | 0.00 | 0.00 | 71 | 1013.5 |
| 20260507120505 | 41 | 299 | 3.0 | 9.0 | 0.00 | 0.00 | 0.00 | 72 | 1013.5 |
| 20260507120005 | 40 | 254 | 5.0 | 11.0 | 0.00 | 0.00 | 0.00 | 72 | 1013.4 |
| 20260507115503 | 40 | 268 | 2.0 | 11.0 | 0.00 | 0.00 | 0.00 | 73 | 1013.4 |
| 20260507114506 | 39 | 280 | 4.0 | 9.0 | 0.00 | 0.00 | 0.00 | 74 | 1013.3 |
| 20260507114003 | 39 | 280 | 2.0 | 9.0 | 0.00 | 0.00 | 0.00 | 75 | 1013.2 |
| 20260507113012 | 38 | 263 | 2.0 | 7.0 | 0.00 | 0.00 | 0.00 | 76 | 1013.1 |
| 20260507112004 | 36 | 224 | 2.0 | 4.0 | 0.00 | 0.00 | 0.00 | 81 | 1013.0 |
| 20260507110503 | 34 | 256 | 0.0 | 2.0 | 0.00 | 0.00 | 0.00 | 81 | 1012.9 |
| 20260507110014 | 34 | 256 | 0.0 | 2.0 | 0.00 | 0.00 | 0.00 | 81 | 1012.7 |
| 20260507105505 | 34 | 252 | 0.0 | 2.0 | 0.00 | 0.00 | 0.00 | 79 | 1012.7 |
| 20260507105006 | 34 | 244 | 0.0 | 0.0 | 0.00 | 0.00 | 0.00 | 80 | 1012.7 |
| 20260507104512 | 34 | 244 | 0.0 | 0.0 | 0.00 | 0.00 | 0.00 | 80 | 1012.8 |
| 20260507104003 | 34 | 244 | 0.0 | 0.0 | 0.00 | 0.00 | 0.00 | 79 | 1012.7 |
| 20260507103503 | 34 | 245 | 0.0 | 0.0 | 0.00 | 0.00 | 0.00 | 79 | 1012.5 |
| 20260507103009 | 35 | 246 | 0.0 | 0.0 | 0.00 | 0.00 | 0.00 | 79 | 1012.4 |
| 20260507102503 | 34 | 246 | 0.0 | 0.0 | 0.00 | 0.00 | 0.00 | 78 | 1012.3 |
| 20260507102006 | 34 | 246 | 0.0 | 1.0 | 0.00 | 0.00 | 0.00 | 78 | 1012.3 |
| 20260507101517 | 35 | 246 | 0.0 | 2.0 | 0.00 | 0.00 | 0.00 | 77 | 1012.3 |
| 20260507101004 | 35 | 246 | 0.0 | 2.0 | 0.00 | 0.00 | 0.00 | 76 | 1012.3 |
| 20260507100504 | 35 | 246 | 0.0 | 2.0 | 0.00 | 0.00 | 0.00 | 76 | 1012.3 |
| 20260507100025 | 35 | 246 | 0.0 | 2.0 | 0.00 | 0.00 | 0.00 | 77 | 1012.3 |
| 20260507095505 | 35 | 246 | 0.0 | 2.0 | 0.00 | 0.00 | 0.00 | 75 | 1012.3 |
| 20260507095008 | 35 | 240 | 0.0 | 2.0 | 0.00 | 0.00 | 0.00 | 75 | 1012.3 |
| 20260507094524 | 36 | 240 | 1.0 | 2.0 | 0.00 | 0.00 | 0.00 | 73 | 1012.4 |
| 20260507094007 | 36 | 240 | 1.0 | 2.0 | 0.00 | 0.00 | 0.00 | 73 | 1012.3 |
| 20260507093503 | 36 | 271 | 0.0 | 2.0 | 0.00 | 0.00 | 0.00 | 72 | 1012.3 |
| 20260507093021 | 37 | 271 | 0.0 | 2.0 | 0.00 | 0.00 | 0.00 | 71 | 1012.3 |
| 20260507092504 | 37 | 271 | 1.0 | 3.0 | 0.00 | 0.00 | 0.00 | 71 | 1012.3 |
| 20260507092006 | 38 | 284 | 0.0 | 3.0 | 0.00 | 0.00 | 0.00 | 70 | 1012.3 |
| 20260507091519 | 38 | 279 | 1.0 | 4.0 | 0.00 | 0.00 | 0.00 | 69 | 1012.4 |
| 20260507091009 | 39 | 276 | 2.0 | 4.0 | 0.00 | 0.00 | 0.00 | 67 | 1012.4 |
| 20260507090504 | 39 | 273 | 2.0 | 4.0 | 0.00 | 0.00 | 0.00 | 68 | 1012.5 |
| 20260507090016 | 39 | 268 | 1.0 | 4.0 | 0.00 | 0.00 | 0.00 | 67 | 1012.5 |
| 20260507085505 | 40 | 282 | 2.0 | 4.0 | 0.00 | 0.00 | 0.00 | 66 | 1012.5 |
| 20260507085006 | 39 | 279 | 2.0 | 4.0 | 0.00 | 0.00 | 0.00 | 67 | 1012.5 |
| 20260507084525 | 40 | 273 | 2.0 | 4.0 | 0.00 | 0.00 | 0.00 | 67 | 1012.5 |
| 20260507084002 | 40 | 277 | 1.0 | 4.0 | 0.00 | 0.00 | 0.00 | 67 | 1012.5 |
| 20260507083506 | 40 | 284 | 2.0 | 6.0 | 0.00 | 0.00 | 0.00 | 66 | 1012.5 |
| 20260507082005 | 40 | 279 | 2.0 | 4.0 | 0.00 | 0.00 | 0.00 | 66 | 1012.6 |
| 20260507081519 | 40 | 274 | 2.0 | 5.0 | 0.00 | 0.00 | 0.00 | 66 | 1012.6 |
| 20260507080506 | 40 | 286 | 2.0 | 5.0 | 0.00 | 0.00 | 0.00 | 67 | 1012.7 |
| 20260507080015 | 40 | 281 | 2.0 | 4.0 | 0.00 | 0.00 | 0.00 | 66 | 1012.8 |
| 20260507074515 | 40 | 286 | 2.0 | 6.0 | 0.00 | 0.00 | 0.00 | 67 | 1012.9 |
| 20260507073011 | 40 | 300 | 3.0 | 6.0 | 0.00 | 0.00 | 0.00 | 66 | 1012.8 |
| 20260507072506 | 40 | 285 | 2.0 | 5.0 | 0.00 | 0.00 | 0.00 | 66 | 1012.8 |
| 20260507072008 | 41 | 298 | 2.0 | 6.0 | 0.00 | 0.00 | 0.00 | 65 | 1012.8 |
| 20260507071526 | 41 | 305 | 2.0 | 6.0 | 0.00 | 0.00 | 0.00 | 65 | 1012.8 |
| 20260507071008 | 41 | 313 | 2.0 | 6.0 | 0.00 | 0.00 | 0.00 | 65 | 1012.8 |
| 20260507070507 | 41 | 312 | 2.0 | 7.0 | 0.00 | 0.00 | 0.00 | 65 | 1012.8 |
| 20260507070015 | 41 | 284 | 3.0 | 7.0 | 0.00 | 0.00 | 0.00 | 65 | 1012.7 |
| 20260507064517 | 42 | 311 | 3.0 | 9.0 | 0.00 | 0.00 | 0.00 | 64 | 1013.0 |
| 20260507063505 | 42 | 323 | 3.0 | 8.0 | 0.00 | 0.00 | 0.00 | 64 | 1013.0 |
| 20260507063019 | 42 | 306 | 4.0 | 9.0 | 0.00 | 0.00 | 0.00 | 64 | 1013.1 |
| 20260507062007 | 43 | 281 | 4.0 | 8.0 | 0.00 | 0.00 | 0.00 | 64 | 1013.0 |
| 20260507061518 | 43 | 319 | 4.0 | 9.0 | 0.00 | 0.00 | 0.00 | 64 | 1013.0 |
| 20260507061010 | 43 | 311 | 2.0 | 10.0 | 0.00 | 0.00 | 0.00 | 63 | 1013.0 |
| 20260507060508 | 43 | 326 | 4.0 | 11.0 | 0.00 | 0.00 | 0.00 | 63 | 1013.0 |
| 20260507060008 | 44 | 302 | 4.0 | 11.0 | 0.00 | 0.00 | 0.00 | 63 | 1013.0 |
| 20260507055004 | 44 | 300 | 6.0 | 9.0 | 0.00 | 0.00 | 0.00 | 62 | 1012.9 |
| 20260507054508 | 44 | 320 | 3.0 | 10.0 | 0.00 | 0.00 | 0.00 | 62 | 1012.9 |
| 20260507054004 | 45 | 326 | 5.0 | 10.0 | 0.00 | 0.00 | 0.00 | 61 | 1012.9 |
| 20260507053008 | 44 | 297 | 3.0 | 5.0 | 0.00 | 0.00 | 0.00 | 62 | 1013.0 |
| 20260507052506 | 44 | 270 | 2.0 | 4.0 | 0.00 | 0.00 | 0.00 | 62 | 1013.0 |
| 20260507052010 | 44 | 298 | 2.0 | 4.0 | 0.00 | 0.00 | 0.00 | 62 | 1013.0 |
| 20260507051524 | 44 | 290 | 1.0 | 3.0 | 0.00 | 0.00 | 0.00 | 62 | 1013.0 |
| 20260507051002 | 44 | 275 | 0.0 | 0.0 | 0.00 | 0.00 | 0.00 | 63 | 1013.0 |
| 20260507050505 | 44 | 275 | 0.0 | 2.0 | 0.00 | 0.00 | 0.00 | 63 | 1013.0 |
| 20260507050006 | 44 | 275 | 0.0 | 3.0 | 0.00 | 0.00 | 0.00 | 61 | 1013.0 |
| 20260507044525 | 43 | 309 | 0.0 | 0.0 | 0.00 | 0.00 | 0.00 | 68 | 1013.1 |
| 20260507043502 | 43 | 336 | 0.0 | 0.0 | 0.00 | 0.00 | 0.00 | 66 | 1013.0 |
| 20260507043018 | 43 | 336 | 0.0 | 0.0 | 0.00 | 0.00 | 0.00 | 66 | 1013.0 |
| 20260507041517 | 43 | 336 | 0.0 | 0.0 | 0.00 | 0.00 | 0.00 | 64 | 1013.2 |
| 20260507041005 | 43 | 336 | 0.0 | 0.0 | 0.00 | 0.00 | 0.00 | 62 | 1013.2 |
| 20260507040011 | 43 | 336 | 0.0 | 0.0 | 0.00 | 0.00 | 0.00 | 61 | 1013.3 |
| 20260507035506 | 43 | 336 | 0.0 | 0.0 | 0.00 | 0.00 | 0.00 | 61 | 1013.3 |
| 20260507035007 | 43 | 336 | 0.0 | 1.0 | 0.00 | 0.00 | 0.00 | 62 | 1013.3 |
| 20260507033014 | 44 | 319 | 1.0 | 4.0 | 0.00 | 0.00 | 0.00 | 59 | 1013.2 |
| 20260507032504 | 45 | 319 | 1.0 | 4.0 | 0.00 | 0.00 | 0.00 | 55 | 1013.3 |
| 20260507032005 | 45 | 302 | 2.0 | 4.0 | 0.00 | 0.00 | 0.00 | 54 | 1013.3 |
| 20260507030503 | 46 | 285 | 1.0 | 6.0 | 0.00 | 0.00 | 0.00 | 52 | 1013.3 |
| 20260507024515 | 47 | 285 | 2.0 | 6.0 | 0.00 | 0.00 | 0.00 | 50 | 1013.4 |
| 20260507024006 | 47 | 286 | 3.0 | 6.0 | 0.00 | 0.00 | 0.00 | 50 | 1013.3 |
| 20260507023012 | 47 | 292 | 3.0 | 7.0 | 0.00 | 0.00 | 0.00 | 50 | 1013.4 |
| 20260507022003 | 47 | 292 | 2.0 | 4.0 | 0.00 | 0.00 | 0.00 | 49 | 1013.3 |
| 20260507021521 | 47 | 287 | 2.0 | 4.0 | 0.00 | 0.00 | 0.00 | 49 | 1013.3 |
| 20260507021005 | 47 | 259 | 2.0 | 6.0 | 0.00 | 0.00 | 0.00 | 49 | 1013.3 |
| 20260507020030 | 47 | 266 | 3.0 | 7.0 | 0.00 | 0.00 | 0.00 | 48 | 1013.1 |
| 20260507015502 | 48 | 285 | 3.0 | 6.0 | 0.00 | 0.00 | 0.00 | 47 | 1013.0 |
| 20260507015005 | 48 | 233 | 2.0 | 6.0 | 0.00 | 0.00 | 0.00 | 47 | 1013.0 |
| 20260507014525 | 48 | 299 | 2.0 | 6.0 | 0.00 | 0.00 | 0.00 | 47 | 1012.9 |
| 20260507013502 | 48 | 263 | 2.0 | 7.0 | 0.00 | 0.00 | 0.00 | 47 | 1012.9 |
| 20260507013024 | 48 | 244 | 3.0 | 7.0 | 0.00 | 0.00 | 0.00 | 49 | 1012.9 |
| 20260507012511 | 48 | 236 | 2.0 | 7.0 | 0.00 | 0.00 | 0.00 | 48 | 1012.9 |
| 20260507011518 | 48 | 252 | 2.0 | 6.0 | 0.00 | 0.00 | 0.00 | 46 | 1013.0 |
| 20260507010029 | 49 | 234 | 2.0 | 9.0 | 0.00 | 0.00 | 0.00 | 46 | 1012.9 |
| 20260507005008 | 49 | 240 | 4.0 | 8.0 | 0.00 | 0.00 | 0.00 | 44 | 1012.8 |
| 20260507004005 | 49 | 290 | 2.0 | 8.0 | 0.00 | 0.00 | 0.00 | 45 | 1012.7 |
| 20260507003507 | 49 | 263 | 3.0 | 9.0 | 0.00 | 0.00 | 0.00 | 45 | 1012.7 |
| 20260507002504 | 49 | 269 | 4.0 | 9.0 | 0.00 | 0.00 | 0.00 | 44 | 1012.6 |
| 20260507002011 | 49 | 262 | 3.0 | 7.0 | 0.00 | 0.00 | 0.00 | 44 | 1012.6 |
| 20260507001535 | 49 | 311 | 3.0 | 8.0 | 0.00 | 0.00 | 0.00 | 43 | 1012.5 |
| 20260507000505 | 49 | 258 | 5.0 | 11.0 | 0.00 | 0.00 | 0.00 | 44 | 1012.4 |
| 20260507000022 | 50 | 294 | 3.0 | 12.0 | 0.00 | 0.00 | 0.00 | 43 | 1012.4 |
| 20260506235506 | 50 | 272 | 5.0 | 12.0 | 0.00 | 0.00 | 0.00 | 43 | 1012.4 |
| 20260506234518 | 50 | 267 | 5.0 | 11.0 | 0.00 | 0.00 | 0.00 | 43 | 1012.5 |
| 20260506233506 | 50 | 252 | 2.0 | 8.0 | 0.00 | 0.00 | 0.00 | 42 | 1012.4 |
| 20260506233019 | 50 | 277 | 4.0 | 10.0 | 0.00 | 0.00 | 0.00 | 42 | 1012.5 |
| 20260506232507 | 50 | 296 | 4.0 | 10.0 | 0.00 | 0.00 | 0.00 | 41 | 1012.4 |
| 20260506232011 | 51 | 290 | 5.0 | 11.0 | 0.00 | 0.00 | 0.00 | 42 | 1012.4 |
| 20260506231506 | 51 | 255 | 6.0 | 14.0 | 0.00 | 0.00 | 0.00 | 41 | 1012.4 |
| 20260506231003 | 51 | 274 | 6.0 | 14.0 | 0.00 | 0.00 | 0.00 | 40 | 1012.5 |
| 20260506230502 | 51 | 315 | 7.0 | 13.0 | 0.00 | 0.00 | 0.00 | 41 | 1012.4 |
| 20260506230003 | 51 | 231 | 4.0 | 13.0 | 0.00 | 0.00 | 0.00 | 41 | 1012.4 |
| 20260506225503 | 52 | 265 | 6.0 | 16.0 | 0.00 | 0.00 | 0.00 | 40 | 1012.3 |
| 20260506225003 | 51 | 263 | 7.0 | 16.0 | 0.00 | 0.00 | 0.00 | 40 | 1012.4 |
| 20260506224504 | 52 | 262 | 6.0 | 15.0 | 0.00 | 0.00 | 0.00 | 40 | 1012.3 |
| 20260506224004 | 52 | 277 | 9.0 | 15.0 | 0.00 | 0.00 | 0.00 | 40 | 1012.4 |
| 20260506223502 | 52 | 285 | 6.0 | 15.0 | 0.00 | 0.00 | 0.00 | 40 | 1012.3 |
| 20260506221504 | 53 | 257 | 8.0 | 15.0 | 0.00 | 0.00 | 0.00 | 40 | 1012.3 |
| 20260506221003 | 53 | 315 | 7.0 | 17.0 | 0.00 | 0.00 | 0.00 | 39 | 1012.2 |
| 20260506220503 | 53 | 311 | 8.0 | 17.0 | 0.00 | 0.00 | 0.00 | 38 | 1012.2 |
| 20260506220006 | 53 | 260 | 3.0 | 12.0 | 0.00 | 0.00 | 0.00 | 40 | 1012.1 |
| 20260506215502 | 53 | 289 | 6.0 | 18.0 | 0.00 | 0.00 | 0.00 | 38 | 1012.1 |
| 20260506215003 | 53 | 286 | 6.0 | 22.0 | 0.00 | 0.00 | 0.00 | 38 | 1012.2 |
| 20260506214505 | 53 | 284 | 9.0 | 22.0 | 0.00 | 0.00 | 0.00 | 39 | 1012.1 |
| 20260506214005 | 52 | 307 | 8.0 | 16.0 | 0.00 | 0.00 | 0.00 | 39 | 1012.2 |
| 20260506213503 | 53 | 304 | 10.0 | 18.0 | 0.00 | 0.00 | 0.00 | 39 | 1012.2 |
| 20260506213004 | 53 | 279 | 9.0 | 18.0 | 0.00 | 0.00 | 0.00 | 38 | 1012.2 |
| 20260506211504 | 53 | 298 | 8.0 | 13.0 | 0.00 | 0.00 | 0.00 | 39 | 1012.2 |
| 20260506211003 | 53 | 277 | 8.0 | 18.0 | 0.00 | 0.00 | 0.00 | 39 | 1012.2 |
| 20260506210502 | 53 | 221 | 9.0 | 18.0 | 0.00 | 0.00 | 0.00 | 39 | 1012.2 |
| 20260506205503 | 53 | 290 | 9.0 | 24.0 | 0.00 | 0.00 | 0.00 | 39 | 1012.3 |
| 20260506205003 | 53 | 322 | 7.0 | 16.0 | 0.00 | 0.00 | 0.00 | 39 | 1012.3 |
| 20260506204505 | 53 | 272 | 11.0 | 16.0 | 0.00 | 0.00 | 0.00 | 39 | 1012.3 |
| 20260506204002 | 53 | 307 | 6.0 | 16.0 | 0.00 | 0.00 | 0.00 | 37 | 1012.3 |
| 20260506203504 | 54 | 304 | 6.0 | 15.0 | 0.00 | 0.00 | 0.00 | 37 | 1012.3 |
| 20260506203006 | 53 | 216 | 4.0 | 13.0 | 0.00 | 0.00 | 0.00 | 40 | 1012.2 |
| 20260506202501 | 53 | 297 | 5.0 | 16.0 | 0.00 | 0.00 | 0.00 | 39 | 1012.3 |
| 20260506202003 | 53 | 312 | 5.0 | 20.0 | 0.00 | 0.00 | 0.00 | 37 | 1012.3 |
| 20260506195505 | 54 | 288 | 8.0 | 17.0 | 0.00 | 0.00 | 0.00 | 36 | 1012.5 |
| 20260506195002 | 53 | 303 | 10.0 | 17.0 | 0.00 | 0.00 | 0.00 | 36 | 1012.5 |
| 20260506194506 | 53 | 305 | 9.0 | 17.0 | 0.00 | 0.00 | 0.00 | 38 | 1012.5 |
| 20260506194001 | 53 | 350 | 9.0 | 17.0 | 0.00 | 0.00 | 0.00 | 37 | 1012.6 |
| 20260506193502 | 53 | 274 | 9.0 | 21.0 | 0.00 | 0.00 | 0.00 | 40 | 1012.6 |
| 20260506193007 | 54 | 281 | 7.0 | 21.0 | 0.00 | 0.00 | 0.00 | 40 | 1012.6 |
| 20260506192503 | 54 | 319 | 7.0 | 18.0 | 0.00 | 0.00 | 0.00 | 38 | 1012.6 |
| 20260506192003 | 54 | 238 | 7.0 | 15.0 | 0.00 | 0.00 | 0.00 | 41 | 1012.6 |
| 20260506191506 | 52 | 239 | 8.0 | 16.0 | 0.00 | 0.00 | 0.00 | 38 | 1012.7 |
| 20260506191003 | 52 | 303 | 6.0 | 16.0 | 0.00 | 0.00 | 0.00 | 1012.5 | |
| 20260506190502 | 51 | 279 | 6.0 | 15.0 | 0.00 | 0.00 | 0.00 | 1012.7 | |
| 20260506185502 | 51 | 289 | 7.0 | 14.0 | 0.00 | 0.00 | 0.00 | 40 | 1012.6 |
| 20260506185003 | 52 | 264 | 6.0 | 14.0 | 0.00 | 0.00 | 0.00 | 40 | 1012.6 |
| 20260506184508 | 52 | 258 | 7.0 | 13.0 | 0.00 | 0.00 | 0.00 | 41 | 1012.7 |
| 20260506184005 | 51 | 304 | 7.0 | 15.0 | 0.00 | 0.00 | 0.00 | 41 | 1012.7 |
| 20260506183503 | 51 | 311 | 6.0 | 15.0 | 0.00 | 0.00 | 0.00 | 39 | 1012.6 |
| 20260506183010 | 52 | 282 | 7.0 | 13.0 | 0.00 | 0.00 | 0.00 | 41 | 1012.5 |
| 20260506182502 | 52 | 332 | 8.0 | 14.0 | 0.00 | 0.00 | 0.00 | 45 | 1012.5 |
| 20260506182003 | 51 | 282 | 9.0 | 15.0 | 0.00 | 0.00 | 0.00 | 45 | 1012.5 |
| 20260506181512 | 51 | 247 | 6.0 | 18.0 | 0.00 | 0.00 | 0.00 | 42 | 1012.6 |
| 20260506181003 | 51 | 300 | 8.0 | 18.0 | 0.00 | 0.00 | 0.00 | 41 | 1012.7 |
| 20260506180503 | 51 | 306 | 6.0 | 18.0 | 0.00 | 0.00 | 0.00 | 39 | 1012.6 |
| 20260506180015 | 51 | 325 | 13.0 | 18.0 | 0.00 | 0.00 | 0.00 | 38 | 1012.6 |
| 20260506175504 | 51 | 322 | 11.0 | 18.0 | 0.00 | 0.00 | 0.00 | 37 | 1012.6 |
| 20260506175002 | 51 | 327 | 7.0 | 18.0 | 0.00 | 0.00 | 0.00 | 40 | 1012.5 |
| 20260506173502 | 52 | 232 | 8.0 | 16.0 | 0.00 | 0.00 | 0.00 | 39 | 1012.6 |
| 20260506173008 | 51 | 352 | 9.0 | 17.0 | 0.00 | 0.00 | 0.00 | 36 | 1012.7 |
| 20260506172504 | 51 | 219 | 9.0 | 17.0 | 0.00 | 0.00 | 0.00 | 37 | 1012.8 |
| 20260506172003 | 52 | 276 | 9.0 | 17.0 | 0.00 | 0.00 | 0.00 | 39 | 1012.8 |
| 20260506171512 | 52 | 360 | 7.0 | 18.0 | 0.00 | 0.00 | 0.00 | 40 | 1012.7 |
| 20260506171003 | 51 | 285 | 7.0 | 18.0 | 0.00 | 0.00 | 0.00 | 41 | 1012.8 |
| 20260506170505 | 51 | 262 | 7.0 | 24.0 | 0.00 | 0.00 | 0.00 | 41 | 1012.8 |
| 20260506170010 | 51 | 299 | 11.0 | 24.0 | 0.00 | 0.00 | 0.00 | 41 | 1012.5 |
| 20260506165503 | 51 | 234 | 7.0 | 13.0 | 0.00 | 0.00 | 0.00 | 40 | 1013.0 |
| 20260506165003 | 51 | 278 | 6.0 | 13.0 | 0.00 | 0.00 | 0.00 | 40 | 1013.0 |
| 20260506164514 | 51 | 235 | 4.0 | 11.0 | 0.00 | 0.00 | 0.00 | 44 | 1012.9 |
| 20260506164006 | 51 | 330 | 5.0 | 11.0 | 0.00 | 0.00 | 0.00 | 44 | 1012.8 |
| 20260506162502 | 51 | 315 | 3.0 | 10.0 | 0.00 | 0.00 | 0.00 | 44 | 1012.8 |
| 20260506162008 | 51 | 265 | 4.0 | 10.0 | 0.00 | 0.00 | 0.00 | 44 | 1012.9 |
| 20260506161003 | 51 | 271 | 4.0 | 15.0 | 0.00 | 0.00 | 0.00 | 43 | 1013.0 |
| 20260506160506 | 51 | 286 | 4.0 | 12.0 | 0.00 | 0.00 | 0.00 | 42 | 1013.0 |
| 20260506160012 | 50 | 230 | 6.0 | 12.0 | 0.00 | 0.00 | 0.00 | 43 | 1013.2 |
| 20260506155505 | 51 | 312 | 3.0 | 11.0 | 0.00 | 0.00 | 0.00 | 48 | 1013.2 |
| 20260506155007 | 51 | 313 | 6.0 | 11.0 | 0.00 | 0.00 | 0.00 | 43 | 1013.2 |
| 20260506154512 | 50 | 312 | 6.0 | 11.0 | 0.00 | 0.00 | 0.00 | 45 | 1013.1 |
| 20260506154006 | 50 | 309 | 4.0 | 13.0 | 0.00 | 0.00 | 0.00 | 45 | 1013.1 |
| 20260506153506 | 50 | 23 | 7.0 | 13.0 | 0.00 | 0.00 | 0.00 | 42 | 1013.0 |
| 20260506153009 | 50 | 302 | 5.0 | 13.0 | 0.00 | 0.00 | 0.00 | 44 | 1013.1 |
| 20260506152502 | 50 | 294 | 7.0 | 13.0 | 0.00 | 0.00 | 0.00 | 45 | 1013.1 |